Погода в Мирном

Россия / Ульяновская область     54°22′01″N   48°43′42″E
темп.,
°C
ветер,
м/с
пор.,
м/с
влажн.,
%
обл.,
%
осадки,
мм/ч
давл.,
гПа
погр.,
м
15 апреля, чт
чт1501:00+10ююв35851 0.0 102260
04:00+9юв34870 0.0 102248
07:00+9юв36850 0.0 1021109
10:00+15ююв45580 0.0 1020362
13:00+18ююв45460 0.0 1019708
16:00+20ю34410 0.0 1018842
19:00+17ю11540 0.0 101812
22:00+14вюв116065 0.0 101911
16 апреля, пт
пт1601:00+11вюв226526 0.0 101910
04:00+10св227399 0.0 101911
07:00+9ссв3681100 0.0 1020123
10:00+13ссв4569100 0.0 1021422
13:00+17ссв445498 0.0 1020933
16:00+18ссв545047 0.0 10201415
19:00+15ссв6965100 0.1 1021414
22:00+11св511769 0.1 1022350
17 апреля, сб
сб1701:00+9св48845 0.0 1023252
04:00+7св48905 0.0 1024235
07:00+7св49845 0.0 1025344
10:00+11всв576027 0.0 1025619
13:00+14всв66445 0.0 10241093
16:00+15всв66355 0.0 10241262
19:00+13св47440 0.0 1024218
22:00+8св411580 0.0 1024245
18 апреля, вс
вс1801:00+6всв411600 0.0 1024246
04:00+4св49690 0.0 1024171
07:00+5всв310690 0.0 1024296
10:00+10всв68460 0.0 1023848
13:00+13всв56360 0.0 10231405
16:00+14всв66354 0.0 10231748
19:00+12св59469 0.0 1023394
22:00+8всв713635 0.0 1024463
19 апреля, пн
пн1901:00+6всв6126768 0.0 1026511
04:00+4всв51155100 0.0 1027421
07:00+3всв51260100 0.0 1028503
10:00+5всв81051100 0.0 1028926
13:00+7в7948100 0.0 10281580
16:00+8в7843100 0.0 10271817
19:00+8всв694894 0.0 1027651
22:00+5всв6134999 0.0 1028505